Port Angeles, WA
on Saturday, December 8, 2012

Saturday
Previous Day Next Day
Daily Summary
 ActualAverageRecord
Temperature
Mean Temperature °F °F  
Max Temperature 45°F 45°F 58°F (1957)
Min Temperature 37°F 35°F 13°F (1972)
Degree Days
Heating Degree Days 23    
Moisture
Dew Point 33°F   
Average Humidity 72    
Maximum Humidity 89    
Minimum Humidity 63    
Precipitation
Precipitation 0.00 in in in ()
Wind
Wind Speed 8 mph   
Max Wind Speed 15 mph   
Max Gust Speed mph   
Visibility 10 miles   
Events     
Averages and records for this station are not official NWS values.
Key: T is trace of precipitation, MM is missing value
Source: NWS Daily Summary
Seasonal Weather Averages
Time(PST)TemperatureDew PointHumidity Pressure Visibility Wind DirectionWind SpeedGust SpeedPrecipitationEvents Conditions
12:53 AM 42.1°F 30.9°F 65% 30.14 in 10.0 miles WSW 11.5 mph - N/A   Overcast
1:53 AM 41.0°F 32.0°F 70% 30.15 in 10.0 miles WSW 9.2 mph - N/A   Mostly Cloudy
2:53 AM 41.0°F 32.0°F 70% 30.15 in 10.0 miles West 13.8 mph - N/A   Overcast
3:53 AM 41.0°F 32.0°F 70% 30.15 in 10.0 miles WSW 10.4 mph - N/A   Mostly Cloudy
4:53 AM 41.0°F 32.0°F 70% 30.15 in 10.0 miles WSW 12.7 mph - N/A   Scattered Clouds
5:53 AM 41.0°F 32.0°F 70% 30.17 in 10.0 miles West 13.8 mph - N/A   Overcast
6:53 AM 42.1°F 30.9°F 65% 30.16 in 10.0 miles WSW 15.0 mph - N/A   Mostly Cloudy
7:53 AM 41.0°F 30.9°F 67% 30.18 in 10.0 miles West 10.4 mph - N/A   Partly Cloudy
8:53 AM 42.1°F 32.0°F 67% 30.21 in 10.0 miles WSW 9.2 mph - N/A   Scattered Clouds
9:53 AM 43.0°F 32.0°F 65% 30.23 in 10.0 miles WSW 8.1 mph - N/A   Clear
10:53 AM 45.0°F 33.1°F 63% 30.25 in 10.0 miles West 5.8 mph - N/A   Mostly Cloudy
11:48 AM 44.6°F 35.6°F 71% 30.24 in 10.0 miles Variable 4.6 mph - N/A   Overcast
11:53 AM 45.0°F 35.1°F 68% 30.25 in 10.0 miles NE 4.6 mph - N/A   Overcast
12:53 PM 44.1°F 34.0°F 68% 30.25 in 10.0 miles Calm Calm - N/A   Overcast
1:17 PM 44.1°F 34.0°F 68% 30.24 in 10.0 miles ESE 6.9 mph - N/A   Mostly Cloudy
1:53 PM 44.1°F 34.0°F 68% 30.25 in 10.0 miles ENE 3.5 mph - N/A   Mostly Cloudy
2:05 PM 44.1°F 34.0°F 68% 30.24 in 10.0 miles Calm Calm - N/A   Mostly Cloudy
2:12 PM 44.1°F 34.0°F 68% 30.25 in 10.0 miles ENE 3.5 mph - N/A   Scattered Clouds
2:53 PM 43.0°F 34.0°F 71% 30.26 in 10.0 miles East 4.6 mph - N/A   Mostly Cloudy
3:23 PM 43.0°F 34.0°F 71% 30.27 in 10.0 miles East 4.6 mph - N/A   Mostly Cloudy
3:53 PM 43.0°F 35.1°F 74% 30.28 in 10.0 miles ESE 4.6 mph - N/A   Overcast
4:04 PM 42.1°F 35.1°F 76% 30.27 in 10.0 miles ESE 4.6 mph - N/A   Overcast
4:17 PM 42.1°F 34.0°F 73% 30.27 in 10.0 miles ESE 5.8 mph - N/A   Overcast
4:53 PM 41.0°F 34.0°F 76% 30.29 in 10.0 miles ESE 4.6 mph - N/A   Overcast
5:53 PM 39.9°F 35.1°F 83% 30.29 in 10.0 miles SE 3.5 mph - N/A   Overcast
6:53 PM 39.0°F 36.0°F 89% 30.31 in 10.0 miles SW 3.5 mph - N/A   Overcast
7:53 PM 39.9°F 35.1°F 83% 30.32 in 10.0 miles Calm Calm - 0.00 in   Overcast
8:53 PM 39.9°F 33.1°F 77% 30.32 in 10.0 miles WSW 4.6 mph - N/A   Mostly Cloudy
9:53 PM 39.0°F 34.0°F 82% 30.33 in 10.0 miles SW 3.5 mph - N/A   Overcast
10:53 PM 39.0°F 33.1°F 79% 30.33 in 10.0 miles SW 4.6 mph - N/A   Mostly Cloudy
11:53 PM 37.9°F 34.0°F 86% 30.33 in 10.0 miles Calm Calm - N/A   Mostly Cloudy
Moon Phase
Dec. 08 Dec. 13 Dec. 20 Dec. 28 Jan. 04
Sunrise:07:51 AM (PST) Moon Rise:02:03 AM (PST)12/8
Sunset:04:20 PM (PST) Moon Set:01:11 PM (PST)12/8

Copyright © 2014 The Weather Underground, Inc.